Weather Roundup
Issued by NWS Springfield, MO

Home | Current Version | Previous Version | Text Only | Print | Product List | Glossary On
Versions: 1 2 3 4 5 6 7 8 9 10 11 12 13 14 15 16 17 18 19 20 21 22 23 24 25 26 27 28 29 30 31 32 33 34 35 36 37 38 39 40 41 42 43 44 45 46 47 48 49 50
000
NZUS99 KSGF 220807
HRRSGF

HOURLY WEATHER
NATIONAL WEATHER SERVICE SPRINGFIELD MO
300 AM CDT FRI MAY 22 2015

......SGF CWA......

CITY           SKY/WX    TMP DP  RH WIND       PRES   REMARKS
SPRINGFIELD    CLEAR     46  42  86 CALM      30.22S
JOPLIN         CLEAR     45  44  97 E3        30.22F
WEST PLAINS    CLEAR     42  39  89 CALM      30.23
ROLLA          CLEAR     45  42  89 SW8       30.21S
OSAGE BEACH    PTCLDY    45  41  87 CALM      30.23S
BRANSON        CLEAR     45  43  93 CALM      30.23S

......SURROUNDING SGF CWA......

CITY           SKY/WX    TMP DP  RH WIND       PRES   REMARKS
CHANUTE        CLEAR     47  45  93 CALM      30.21F
PARSONS        CLEAR     48  47  96 CALM      30.22F
COFFEYVILLE    CLEAR     48  46  93 CALM      30.21S
EMPORIA        PTCLDY    45  44  97 E5        30.20F
GROVE OK       CLEAR     46  46 100 CALM      30.22S
ROGERS AR      MOCLDY    45  44  97 E3        30.22F
SILOAM SPRINGS CLEAR     48  41  76 E3        30.21F
HARRISON AR    CLEAR     44  43  96 CALM      30.22S
NEAR YELLVILLE CLEAR     46  45  93 CALM      30.21S

......KANSAS AND MISSOURI......

CITY           SKY/WX    TMP DP  RH WIND       PRES   REMARKS
KANSAS CTY INT PTCLDY    51  45  79 SW6       30.22F
DOWNTOWN KC    CLEAR     55  45  68 SW3       30.22F
COLUMBIA       CLEAR     51  44  77 W7        30.21S
SEDALIA        CLEAR     54  44  69 SW6       30.23F
ST JOSEPH      CLEAR     51  46  83 S5        30.22S
ST LOUIS       CLEAR     53  43  68 W7        30.19R
SPIRIT OF STL  CLEAR     49  44  83 CALM      30.19R
KIRKSVILLE     CLEAR     54  45  71 W7        30.19R
WICHITA        MOCLDY    53  46  77 SE5       30.20R
TOPEKA         CLEAR     50  48  93 CALM      30.21F
OLATHE         PTCLDY    53  44  71 W3        30.21F

......TENNESSEE......

CITY           SKY/WX    TMP DP  RH WIND       PRES   REMARKS
MEMPHIS        CLEAR     50  45  83 N5        30.21S
NASHVILLE      CLEAR     48  45  89 NW3       30.21R

......ARKANSAS.......

CITY           SKY/WX    TMP DP  RH WIND       PRES   REMARKS
FAYETTEVILLE   CLEAR     44  44 100 S3        30.21S
FT SMITH       MOCLDY    56  51  84 E5        30.19S
LITTLE ROCK    CLEAR     53  48  83 CALM      30.23R

......OKLAHOMA.......

CITY           SKY/WX    TMP DP  RH WIND       PRES   REMARKS
TULSA          CLOUDY    54  49  83 NE6       30.18F
PONCA CITY     PTCLDY    49  48  97 CALM      30.19S
MCALESTER      CLOUDY    56  51  84 E3        30.16F
OKLAHOMA CITY  CLOUDY    55  47  74 E8        30.16S

......IOWA............

CITY           SKY/WX    TMP DP  RH WIND       PRES   REMARKS
DES MOINES     CLEAR     54  42  64 W9        30.16R
QUAD CITIES    CLEAR     49  43  80 W3        30.09R

......ILLINOIS........

CITY           SKY/WX    TMP DP  RH WIND       PRES   REMARKS
QUINCY         CLEAR     53  45  74 SW10      30.16R
CHICAGO        CLEAR     55  41  59 NW3       30.05R



USA.gov is the U.S. government's official web portal to all federal, state and local government web resources and services.